FW8315 Weather Reports


time (UTC)temp
C
wind
direction
speed
KPH
gust
KPH
rain 1hr
cm
rain 24hr
cm
rain mn
cm
humidity
%
barometer
mb
20260506154027 18 141 6.4 12.9 0.00 0.00 0.00 50 1015.6
20260506153033 19 133 9.7 16.1 0.00 0.00 0.00 49 1015.7
20260506152020 19 156 9.7 20.9 0.00 0.00 0.00 49 1015.7
20260506151025 20 155 6.4 16.1 0.00 0.00 0.00 47 1015.8
20260506150030 20 130 4.8 11.3 0.00 0.00 0.00 45 1015.7
20260506145020 21 140 4.8 12.9 0.00 0.00 0.00 43 1015.6
20260506144023 20 135 4.8 14.5 0.00 0.00 0.00 45 1015.7
20260506143028 21 151 4.8 9.7 0.00 0.00 0.00 44 1015.6
20260506142016 21 131 8.0 16.1 0.00 0.00 0.00 44 1015.6
20260506141021 20 155 8.0 20.9 0.00 0.00 0.00 46 1015.6
20260506140026 20 113 4.8 14.5 0.00 0.00 0.00 46 1015.9
20260506135031 20 126 6.4 17.7 0.00 0.00 0.00 46 1015.8
20260506134019 20 113 8.0 20.9 0.00 0.00 0.00 45 1015.7
20260506133024 20 133 4.8 11.3 0.00 0.00 0.00 44 1015.7
20260506132029 20 79 6.4 22.5 0.00 0.00 0.00 46 1015.7
20260506131017 20 82 4.8 14.5 0.00 0.00 0.00 46 1015.9
20260506130022 20 126 8.0 17.7 0.00 0.00 0.00 48 1015.8
20260506125047 20 69 6.4 12.9 0.00 0.00 0.00 46 1016.0
20260506120018 19 100 4.8 14.5 0.00 0.00 0.00 48 1016.4
20260506115025 19 75 4.8 11.3 0.00 0.00 0.00 48 1016.4
20260506114028 19 145 8.0 17.7 0.00 0.00 0.00 49 1016.5
20260506113033 19 124 6.4 16.1 0.00 0.00 0.00 49 1016.5
20260506112021 18 147 4.8 14.5 0.00 0.00 0.00 50 1016.5
20260506111025 18 96 6.4 17.7 0.00 0.00 0.00 49 1016.5
20260506110030 18 133 8.0 17.7 0.00 0.00 0.00 49 1016.6
20260506105018 19 120 8.0 16.1 0.00 0.00 0.00 50 1016.6
20260506104023 18 129 6.4 11.3 0.00 0.00 0.00 50 1016.7
20260506103028 19 125 4.8 14.5 0.00 0.00 0.00 49 1016.6
20260506102016 18 164 8.0 16.1 0.00 0.00 0.00 50 1016.4
20260506101021 18 138 9.7 24.1 0.00 0.00 0.00 50 1016.6
20260506100026 18 90 6.4 20.9 0.00 0.00 0.00 48 1016.6
20260506095031 18 112 6.4 16.1 0.00 0.00 0.00 49 1016.5
20260506094019 18 122 8.0 20.9 0.00 0.00 0.00 50 1016.6
20260506093024 18 127 6.4 12.9 0.00 0.00 0.00 51 1016.6
20260506092029 18 159 8.0 14.5 0.00 0.00 0.00 51 1016.6
20260506091018 18 133 8.0 16.1 0.00 0.00 0.00 50 1016.6
20260506090024 18 133 6.4 14.5 0.00 0.00 0.00 50 1016.5
20260506085047 18 131 9.7 22.5 0.00 0.00 0.00 49 1016.4
20260506072021 17 163 8.0 14.5 0.00 0.00 0.00 44 1016.0
20260506071026 17 149 6.4 16.1 0.00 0.00 0.00 48 1015.7
20260506062017 17 113 6.4 20.9 0.00 0.00 0.00 45 1015.7
20260506061022 17 119 6.4 14.5 0.00 0.00 0.00 46 1015.7
20260506051017 16 110 1.6 3.2 0.00 0.00 0.00 59 1015.5
20260506045027 16 174 0.0 0.0 0.00 0.00 0.00 62 1015.2
20260506044032 14 174 0.0 0.0 0.00 0.00 0.00 66 1015.1
20260506043020 13 174 0.0 0.0 0.00 0.00 0.00 70 1015.1
20260506042025 13 174 0.0 0.0 0.00 0.00 0.00 71 1014.9
20260506041030 11 174 0.0 0.0 0.00 0.00 0.00 76 1015.0
20260506040018 10 174 0.0 0.0 0.00 0.00 0.00 77 1014.9
20260506035023 8 173 0.0 0.0 0.00 0.00 0.00 76 1015.0
20260506034028 7 173 0.0 0.0 0.00 0.00 0.00 79 1014.9
20260506033016 6 173 0.0 0.0 0.00 0.00 0.00 79 1015.0
20260506032021 5 173 0.0 0.0 0.00 0.00 0.00 79 1014.9
20260506031026 5 173 0.0 0.0 0.00 0.00 0.00 78 1014.9
20260506030036 5 173 0.0 0.0 0.00 0.00 0.00 78 1014.9
20260506025019 5 173 0.0 0.0 0.00 0.00 0.00 78 1014.7
20260506024024 5 173 0.0 0.0 0.00 0.00 0.00 77 1014.9
20260506023029 6 173 0.0 0.0 0.00 0.00 0.00 77 1014.7
20260506022017 6 173 0.0 0.0 0.00 0.00 0.00 76 1014.7
20260506021022 6 173 0.0 0.0 0.00 0.00 0.00 77 1014.8
20260506020026 6 173 0.0 0.0 0.00 0.00 0.00 77 1014.7
20260506015032 6 173 0.0 0.0 0.00 0.00 0.00 77 1014.7
20260506014020 6 173 0.0 3.2 0.00 0.00 0.00 78 1014.6
20260506013025 6 173 0.0 0.0 0.00 0.00 0.00 78 1014.9
20260506012029 6 173 0.0 0.0 0.00 0.00 0.00 77 1014.7
20260506011017 6 173 0.0 0.0 0.00 0.00 0.00 77 1014.8
20260506010022 6 173 1.6 4.8 0.00 0.00 0.00 77 1014.8
20260506005028 6 173 1.6 3.2 0.00 0.00 0.00 77 1014.9
20260506004015 6 173 1.6 3.2 0.00 0.00 0.00 77 1014.7
20260506003020 6 173 0.0 0.0 0.00 0.00 0.00 77 1014.7
20260506002025 6 173 0.0 0.0 0.00 0.00 0.00 76 1014.9
20260506001031 6 173 1.6 4.8 0.00 0.00 0.00 76 1014.9
20260506000018 7 173 0.0 0.0 0.00 0.00 0.00 75 1014.9
20260505235023 7 173 0.0 0.0 0.00 0.00 0.00 75 1014.9
20260505234028 7 173 0.0 0.0 0.00 0.00 0.00 75 1015.1
20260505233018 7 173 0.0 1.6 0.00 0.00 0.00 75 1015.1
20260505232021 7 173 1.6 4.8 0.00 0.00 0.00 75 1015.2
20260505231026 7 173 1.6 4.8 0.00 0.00 0.00 76 1015.6
20260505230031 7 173 0.0 3.2 0.00 0.00 0.00 76 1015.4
20260505225019 7 173 0.0 0.0 0.00 0.00 0.00 75 1015.6
20260505224025 8 173 0.0 0.0 0.00 0.00 0.00 74 1015.6
20260505223029 8 173 1.6 3.2 0.00 0.00 0.00 73 1015.6
20260505222017 8 173 0.0 0.0 0.00 0.00 0.00 72 1015.6
20260505221022 8 173 1.6 4.8 0.00 0.00 0.00 72 1015.6
20260505220027 8 172 3.2 6.4 0.00 0.00 0.00 72 1015.6
20260505215032 8 173 3.2 6.4 0.00 0.00 0.00 73 1015.8
20260505214020 8 173 3.2 6.4 0.00 0.00 0.00 74 1015.8
20260505213025 8 152 4.8 9.7 0.00 0.00 0.00 74 1015.9
20260505212030 8 152 4.8 11.3 0.00 0.00 0.00 75 1015.9
20260505211018 8 147 4.8 6.4 0.00 0.00 0.00 75 1016.0
20260505210023 8 158 4.8 9.7 0.00 0.00 0.00 75 1015.9
20260505205028 8 159 6.4 12.9 0.00 0.00 0.00 76 1015.9
20260505204033 8 154 4.8 9.7 0.00 0.00 0.00 76 1016.0
20260505203021 9 140 4.8 9.7 0.00 0.00 0.00 76 1016.0
20260505202025 9 155 4.8 9.7 0.00 0.00 0.00 76 1015.9
20260505201031 9 144 6.4 9.7 0.00 0.00 0.00 76 1016.0
20260505200018 9 159 4.8 11.3 0.00 0.00 0.00 75 1015.9
20260505195023 9 156 6.4 11.3 0.00 0.00 0.00 75 1015.9
20260505194028 10 162 4.8 9.7 0.00 0.00 0.00 74 1015.9
20260505193017 10 185 3.2 9.7 0.00 0.00 0.00 72 1015.9
20260505192021 10 176 4.8 11.3 0.00 0.00 0.00 72 1015.8
20260505191026 10 164 4.8 9.7 0.00 0.00 0.00 71 1015.9
20260505190031 10 157 4.8 9.7 0.00 0.00 0.00 69 1015.8
20260505185019 10 160 4.8 9.7 0.00 0.00 0.00 69 1015.7
20260505184025 10 152 6.4 11.3 0.00 0.00 0.00 68 1015.7
20260505183029 11 140 6.4 11.3 0.00 0.00 0.00 67 1015.7
20260505182017 11 149 6.4 12.9 0.00 0.00 0.00 67 1015.6
20260505181022 11 149 6.4 11.3 0.00 0.00 0.00 68 1015.5
20260505180029 11 143 6.4 9.7 0.00 0.00 0.00 67 1015.5
20260505175032 12 154 6.4 11.3 0.00 0.00 0.00 66 1015.3
20260505174020 12 153 8.0 12.9 0.00 0.00 0.00 65 1015.3
20260505173025 12 152 6.4 16.1 0.00 0.00 0.00 65 1015.3
20260505172030 13 160 6.4 12.9 0.00 0.00 0.00 63 1015.3
20260505171018 13 164 6.4 14.5 0.00 0.00 0.00 64 1015.2
20260505170023 14 164 6.4 16.1 0.00 0.00 0.00 63 1015.0
20260505165028 15 163 8.0 16.1 0.00 0.00 0.00 62 1015.1
20260505164016 15 140 9.7 16.1 0.00 0.00 0.00 61 1015.1
20260505163021 15 132 8.0 14.5 0.00 0.00 0.00 56 1014.8
20260505162026 15 124 6.4 14.5 0.00 0.00 0.00 55 1014.8
20260505161031 16 141 9.7 20.9 0.00 0.00 0.00 56 1014.9